Big Bear City, CA

11:21 PM PDT on May 24, 2017 (GMT -0700)
Big Bear City

Weather History for KL35 - February, 2014

Change the Weather History Date:

Wednesday, February 26, 2014

  Actual Average (KBUO) Record (KBUO)
Temperature  
Mean Temperature 39 °F -  
Max Temperature 50 °F 58 °F 62 °F (1999)
Min Temperature 28 °F 39 °F 39 °F (1998)
Degree Days  
Heating Degree Days 26    
Moisture  
Dew Point 28 °F    
Average Humidity 67    
Maximum Humidity 87    
Minimum Humidity 35    
Precipitation  
Precipitation 0.00 in - - ()
Sea Level Pressure  
Sea Level Pressure 30.08 in    
Wind  
Wind Speed 4 mph (WSW)    
Max Wind Speed 14 mph    
Max Gust Speed 23 mph    
Visibility 10 miles    
Events Rain    
Averages and records for this station are not official NWS values.
T = Trace of Precipitation, MM = Missing Value Source: NWS Daily Summary

Daily Weather History Graph

Daily Weather History Graph

Search for Another Location

Airport or City:

Trip Planner

Search our weather history database for the weather conditions in past years. The results will help you decide how hot, cold, wet, or windy it might be!

Date:

Astronomy

Feb. 26, 2014 Rise Set
Actual Time 6:19 AM PST 5:41 PM PST
Civil Twilight 5:54 AM PST 6:06 PM PST
Nautical Twilight 5:25 AM PST 6:35 PM PST
Astronomical Twilight 4:56 AM PST 7:04 PM PST
Moon 4:04 AM PST (2/26) 3:05 PM PST (2/26)
Length of Visible Light 12h 11m
Length of Day
11h 21m
Waning Crescent, 9% of the Moon is Illuminated
Feb 26
Waning Crescent
Mar 1
New
Mar 8
First Quarter
Mar 16
Full
Mar 23
Last Quarter

Hourly Weather History & Observations

Time (PST) Temp. Windchill Dew Point Humidity Pressure Visibility Wind Dir Wind Speed Gust Speed Precip Events Conditions
12:15 AM 28.4 °F - 17.6 °F 64% 30.11 in 10.0 mi Calm Calm - N/A   Clear
12:35 AM 28.4 °F - 17.6 °F 64% 30.11 in 10.0 mi Calm Calm - N/A   Clear
12:55 AM 28.4 °F - 17.6 °F 64% 30.12 in 10.0 mi Calm Calm - N/A   Clear
1:15 AM 28.4 °F - 19.4 °F 69% 30.11 in 7.0 mi Calm Calm - N/A   Clear
1:35 AM 30.2 °F - 19.4 °F 64% 30.11 in 10.0 mi Calm Calm - N/A   Clear
1:55 AM 30.2 °F - 19.4 °F 64% 30.10 in 10.0 mi Calm Calm - N/A   Clear
2:15 AM 30.2 °F - 19.4 °F 64% 30.10 in 10.0 mi Calm Calm - N/A   Clear
2:30 AM 30.2 °F - 19.4 °F 64% 30.09 in 10.0 mi Calm Calm - N/A   Clear
2:55 AM 30.2 °F - 19.4 °F 64% 30.08 in 10.0 mi Calm Calm - N/A   Clear
3:15 AM 30.2 °F 26.7 °F 21.2 °F 69% 30.08 in 10.0 mi West 3.5 mph - N/A   Clear
3:35 AM 32.0 °F 26.4 °F 23.0 °F 69% 30.08 in 10.0 mi SW 5.8 mph - N/A   Clear
3:55 AM 32.0 °F 27.5 °F 21.2 °F 64% 30.08 in 10.0 mi South 4.6 mph - N/A   Clear
4:15 AM 32.0 °F - 21.2 °F 64% 30.08 in 10.0 mi Calm Calm - N/A   Clear
4:35 AM 30.2 °F - 21.2 °F 69% 30.08 in 10.0 mi Calm Calm - N/A   Clear
4:55 AM 30.2 °F - 21.2 °F 69% 30.08 in 10.0 mi Calm Calm - N/A   Clear
5:15 AM 30.2 °F - 21.2 °F 69% 30.08 in 10.0 mi Calm Calm - N/A   Clear
5:35 AM 30.2 °F - 21.2 °F 69% 30.08 in 10.0 mi Calm Calm - N/A   Clear
5:55 AM 28.4 °F - 21.2 °F 74% 30.09 in 10.0 mi Calm Calm - N/A   Clear
6:15 AM 28.4 °F - 21.2 °F 74% 30.09 in 10.0 mi Calm Calm - N/A   Clear
6:35 AM 28.4 °F - 21.2 °F 74% 30.10 in 10.0 mi Calm Calm - N/A   Clear
6:55 AM 30.2 °F - 21.2 °F 69% 30.09 in 10.0 mi Calm Calm - N/A   Mostly Cloudy
7:15 AM 30.2 °F - 21.2 °F 69% 30.09 in 10.0 mi Calm Calm - N/A   Scattered Clouds
7:35 AM 33.8 °F - 24.8 °F 70% 30.10 in 10.0 mi Calm Calm - N/A   Scattered Clouds
7:55 AM 35.6 °F - 24.8 °F 65% 30.11 in 10.0 mi Calm Calm - N/A   Scattered Clouds
8:15 AM 37.4 °F - 26.6 °F 65% 30.11 in 10.0 mi Calm Calm - N/A   Scattered Clouds
8:35 AM 42.8 °F 40.1 °F 30.2 °F 61% 30.11 in 10.0 mi WSW 4.6 mph - N/A   Scattered Clouds
8:55 AM 46.4 °F 42.9 °F 30.2 °F 53% 30.11 in 10.0 mi WSW 6.9 mph - N/A   Clear
9:15 AM 46.4 °F 42.4 °F 30.2 °F 53% 30.11 in 10.0 mi West 8.1 mph - N/A   Clear
9:35 AM 46.4 °F 42.9 °F 30.2 °F 53% 30.11 in 10.0 mi West 6.9 mph - N/A   Clear
9:55 AM 50.0 °F - 30.2 °F 47% 30.10 in 10.0 mi West 8.1 mph - N/A   Clear
10:15 AM 50.0 °F - 30.2 °F 47% 30.11 in 10.0 mi West 9.2 mph - N/A   Scattered Clouds
10:35 AM 50.0 °F - 30.2 °F 47% 30.11 in 10.0 mi WSW 8.1 mph 17.3 mph N/A   Mostly Cloudy
10:55 AM 50.0 °F - 24.8 °F 37% 30.11 in 10.0 mi SW 6.9 mph - N/A   Overcast
11:15 AM 50.0 °F - 24.8 °F 37% 30.10 in 10.0 mi WSW 6.9 mph - N/A   Overcast
11:35 AM 48.2 °F - 26.6 °F 43% 30.08 in 10.0 mi West 3.5 mph - N/A   Overcast
11:55 AM 50.0 °F - 23.0 °F 35% 30.08 in 10.0 mi West 6.9 mph - N/A   Mostly Cloudy
12:15 PM 50.0 °F - 24.8 °F 37% 30.08 in 10.0 mi WSW 5.8 mph - N/A   Overcast
12:35 PM 46.4 °F 42.4 °F 30.2 °F 53% 30.08 in 10.0 mi WSW 8.1 mph 20.7 mph N/A Rain Light Rain
12:55 PM 44.6 °F 39.2 °F 32.0 °F 61% 30.08 in 7.0 mi WSW 10.4 mph 17.3 mph N/A Rain Light Rain
1:15 PM 44.6 °F 42.2 °F 33.8 °F 66% 30.07 in 10.0 mi WSW 4.6 mph - N/A   Light Drizzle
1:35 PM 44.6 °F 41.4 °F 32.0 °F 61% 30.06 in 10.0 mi West 5.8 mph - N/A   Overcast
1:55 PM 46.4 °F 42.4 °F 32.0 °F 57% 30.05 in 10.0 mi West 8.1 mph - N/A   Mostly Cloudy
2:15 PM 46.4 °F 41.1 °F 32.0 °F 57% 30.05 in 10.0 mi WSW 11.5 mph 18.4 mph N/A   Mostly Cloudy
2:35 PM 46.4 °F 41.1 °F 32.0 °F 57% 30.05 in 10.0 mi WSW 11.5 mph 23.0 mph N/A   Scattered Clouds
2:55 PM 46.4 °F 40.7 °F 32.0 °F 57% 30.06 in 10.0 mi WSW 12.7 mph 19.6 mph N/A   Mostly Cloudy
3:15 PM 44.6 °F 40.2 °F 32.0 °F 61% 30.06 in 10.0 mi WSW 8.1 mph - N/A   Overcast
3:35 PM 44.6 °F 38.8 °F 32.0 °F 61% 30.06 in 10.0 mi West 11.5 mph - N/A   Mostly Cloudy
3:55 PM 44.6 °F 39.7 °F 32.0 °F 61% 30.06 in 10.0 mi WSW 9.2 mph - N/A   Clear
4:15 PM 44.6 °F 39.7 °F 32.0 °F 61% 30.06 in 10.0 mi West 9.2 mph - N/A   Clear
4:35 PM 44.6 °F 39.7 °F 33.8 °F 66% 30.05 in 10.0 mi West 9.2 mph - N/A   Clear
4:55 PM 42.8 °F 36.6 °F 33.8 °F 70% 30.06 in 10.0 mi West 11.5 mph 16.1 mph N/A   Clear
5:15 PM 41.0 °F 37.1 °F 33.8 °F 76% 30.08 in 4.0 mi SSW 5.8 mph - N/A   Haze
5:35 PM 37.4 °F 34.9 °F 33.8 °F 87% 30.07 in 10.0 mi SW 3.5 mph - N/A   Scattered Clouds
5:55 PM 37.4 °F 34.9 °F 33.8 °F 87% 30.07 in 10.0 mi WSW 3.5 mph - N/A   Clear
6:15 PM 37.4 °F 32.8 °F 32.0 °F 81% 30.08 in 10.0 mi West 5.8 mph - N/A   Clear
6:35 PM 37.4 °F 32.1 °F 32.0 °F 81% 30.07 in 10.0 mi WSW 6.9 mph - N/A   Clear
6:55 PM 37.4 °F 30.8 °F 32.0 °F 81% 30.08 in 10.0 mi West 9.2 mph - N/A   Clear
7:15 PM 35.6 °F 30.7 °F 32.0 °F 87% 30.08 in 10.0 mi WSW 5.8 mph - N/A   Clear
7:35 PM 37.4 °F 32.1 °F 32.0 °F 81% 30.08 in 10.0 mi West 6.9 mph - N/A   Scattered Clouds
7:55 PM 37.4 °F 31.4 °F 32.0 °F 81% 30.08 in 10.0 mi WSW 8.1 mph - N/A   Clear
8:15 PM 37.4 °F 30.3 °F 32.0 °F 81% 30.08 in 10.0 mi West 10.4 mph - N/A   Clear
8:35 PM 37.4 °F 30.3 °F 33.8 °F 87% 30.09 in 10.0 mi West 10.4 mph 17.3 mph N/A   Scattered Clouds
8:55 PM 39.2 °F 33.0 °F 33.8 °F 81% 30.10 in 10.0 mi West 9.2 mph - N/A   Mostly Cloudy
9:15 PM 37.4 °F 30.8 °F 33.8 °F 87% 30.10 in 10.0 mi West 9.2 mph - N/A   Overcast
9:35 PM 37.4 °F 31.4 °F 33.8 °F 87% 30.08 in 10.0 mi WSW 8.1 mph - N/A   Mostly Cloudy
9:55 PM 37.4 °F 32.8 °F 33.8 °F 87% 30.08 in 10.0 mi SW 5.8 mph - N/A   Clear
10:15 PM 37.4 °F 30.8 °F 32.0 °F 81% 30.08 in 10.0 mi WSW 9.2 mph - N/A   Clear
10:35 PM 39.2 °F 33.0 °F 33.8 °F 81% 30.08 in 10.0 mi West 9.2 mph - N/A   Clear
10:55 PM 41.0 °F 35.8 °F 32.0 °F 70% 30.08 in 10.0 mi WSW 8.1 mph - N/A   Scattered Clouds
11:15 PM 41.0 °F 34.7 °F 33.8 °F 76% 30.07 in 10.0 mi West 10.4 mph - N/A   Mostly Cloudy
11:35 PM 39.2 °F 31.2 °F 33.8 °F 81% 30.07 in 10.0 mi West 13.8 mph 19.6 mph N/A   Overcast
11:55 PM 41.0 °F 33.9 °F 33.8 °F 76% 30.05 in 10.0 mi SW 12.7 mph 20.7 mph N/A   Mostly Cloudy